Location: Giessen
(50.5800°N, 8.7028°E)
Time: 17:23:14
(UTC+02:00)

ISS - Visible Passes

Search period start: 19 September 2018 00:00
Search period end: 29 September 2018 00:00
Orbit: 402 x 408 km, 51.6° (Epoch: 20 September)

Date Brightness Start Highest point End Pass type
(mag) Time Alt. Az. Time Alt. Az. Time Alt. Az.
22 Sep -1.7 20:27:16 10° SSE 20:28:33 12° SE 20:28:33 12° SE visible
23 Sep -2.6 21:09:42 10° SW 21:11:53 29° S 21:11:53 29° S visible
24 Sep -2.4 20:18:12 10° SSW 20:20:52 23° SE 20:22:19 17° ESE visible
24 Sep -1.6 21:53:45 10° WSW 21:55:01 21° WSW 21:55:01 21° WSW visible
25 Sep -3.8 21:01:48 10° WSW 21:05:03 59° SSE 21:05:16 57° SE visible
26 Sep -3.2 20:09:57 10° SW 20:13:05 40° SSE 20:15:25 16° E visible
26 Sep -2.1 21:46:11 10° W 21:48:05 32° W 21:48:05 32° W visible
27 Sep -3.9 20:54:06 10° WSW 20:57:24 87° S 20:58:08 51° E visible
27 Sep -0.4 22:30:42 10° W 22:30:48 11° W 22:30:48 11° W visible
28 Sep -3.8 20:02:04 10° WSW 20:05:21 67° SSE 20:08:06 14° ENE visible
28 Sep -2.4 21:38:35 10° W 21:40:46 38° WNW 21:40:46 38° WNW visible
